Location: Montreal
(45.5087°N, 73.5540°W)
Time: 11:55:20
(UTC-05:00)

Envisat - Visible Passes

Search period start: 18 February 2019 00:00
Search period end: 28 February 2019 00:00
Orbit: 764 x 766 km, 98.2° (Epoch: 18 February)

Date Brightness Start Highest point End Pass type
(mag) Time Alt. Az. Time Alt. Az. Time Alt. Az.
18 Feb 3.0 18:27:43 10° SSE 18:32:48 87° ENE 18:37:55 10° NNW visible
18 Feb 6.1 20:10:31 10° WSW 20:12:31 12° W 20:14:32 10° WNW visible
19 Feb 3.4 17:51:25 10° SE 17:56:11 42° ENE 18:00:57 10° N visible
19 Feb 5.2 19:31:07 10° SSW 19:35:21 26° W 19:39:36 10° NW visible
20 Feb 6.5 06:00:05 10° ENE 06:01:58 12° E 06:03:50 10° ESE visible
20 Feb 3.7 18:53:24 10° S 18:58:22 55° W 19:03:24 10° NNW visible
21 Feb 2.9 18:16:34 10° SSE 18:21:37 71° ENE 18:26:41 10° N visible
21 Feb 5.9 19:58:10 10° SW 20:01:10 16° W 20:04:09 10° NW visible
22 Feb 4.8 19:19:31 10° SSW 19:24:03 32° W 19:28:37 10° NNW visible
23 Feb 3.3 18:42:05 10° S 18:47:09 69° WSW 18:52:14 10° NNW visible
24 Feb 3.1 18:05:29 10° SSE 18:10:26 57° ENE 18:15:25 10° N visible
24 Feb 5.6 19:46:12 10° SW 19:49:49 19° W 19:53:27 10° NW visible
25 Feb 4.4 19:08:00 10° SSW 19:12:46 40° W 19:17:34 10° NNW visible
26 Feb 3.1 18:30:50 10° SSE 18:35:55 86° WSW 18:41:02 10° NNW visible
26 Feb 6.2 20:14:19 10° WSW 20:15:42 11° W 20:17:05 10° WNW visible
27 Feb 5.3 19:34:25 10° SSW 19:38:30 24° W 19:42:36 10° NW visible
